TimeEST,TemperatureF,Dew PointF,Humidity,Sea Level PressureIn,VisibilityMPH,Wind Direction,Wind SpeedMPH,Gust SpeedMPH,PrecipitationIn,Events,Conditions,WindDirDegrees,DateUTC
12:44 AM,33.8,26.6,75,29.69,10.0,North,8.1,-,0.00,Snow,Light Snow,350,2013-02-14 05:44:00
12:53 AM,33.1,28.0,82,29.70,2.5,North,8.1,-,0.00,Snow,Light Snow,360,2013-02-14 05:53:00
12:56 AM,33.8,28.4,81,29.70,1.2,North,6.9,-,0.00,Snow,Light Snow,10,2013-02-14 05:56:00
1:02 AM,32.0,28.4,87,29.69,0.8,North,8.1,-,0.00,Snow,Light Snow,360,2013-02-14 06:02:00
1:15 AM,32.0,30.2,93,29.68,1.0,North,8.1,-,0.01,Snow,Light Snow,10,2013-02-14 06:15:00
1:39 AM,32.0,32.0,100,29.69,0.8,North,6.9,-,0.02,Snow,Light Snow,10,2013-02-14 06:39:00
1:53 AM,32.0,32.0,100,29.69,1.0,North,8.1,-,0.03,Snow,Light Snow,360,2013-02-14 06:53:00
2:16 AM,32.0,30.2,93,29.68,2.5,North,11.5,-,0.01,Snow,Light Snow,360,2013-02-14 07:16:00
2:33 AM,32.0,30.2,93,29.67,1.2,North,9.2,-,0.01,Snow,Light Snow,360,2013-02-14 07:33:00
2:53 AM,32.0,30.9,96,29.68,1.8,North,6.9,-,0.02,Snow,Light Snow,10,2013-02-14 07:53:00
3:26 AM,32.0,32.0,100,29.67,2.0,North,8.1,-,0.01,Snow,Light Snow,350,2013-02-14 08:26:00
3:36 AM,32.0,32.0,100,29.67,1.2,North,9.2,-,0.01,Snow,Light Snow,360,2013-02-14 08:36:00
3:53 AM,32.0,32.0,100,29.67,1.2,North,10.4,-,0.02,Snow,Light Snow,360,2013-02-14 08:53:00
4:07 AM,32.0,32.0,100,29.67,2.0,North,10.4,-,0.00,Snow,Light Snow,360,2013-02-14 09:07:00
4:34 AM,32.0,30.2,93,29.68,4.0,North,11.5,-,0.01,Snow,Light Snow,350,2013-02-14 09:34:00
4:53 AM,32.0,30.9,96,29.70,10.0,NNW,11.5,-,0.01,,Overcast,340,2013-02-14 09:53:00
5:53 AM,32.0,30.9,96,29.73,10.0,North,11.5,-,0.01,,Overcast,350,2013-02-14 10:53:00
6:24 AM,30.2,28.4,93,29.74,10.0,NNW,6.9,-,N/A,,Scattered Clouds,330,2013-02-14 11:24:00
6:53 AM,28.9,28.0,96,29.75,9.0,NNW,4.6,-,N/A,,Clear,340,2013-02-14 11:53:00
7:53 AM,30.9,28.0,89,29.78,10.0,NNW,8.1,-,N/A,,Clear,330,2013-02-14 12:53:00
8:53 AM,34.0,30.0,85,29.82,10.0,NNW,11.5,-,N/A,,Mostly Cloudy,330,2013-02-14 13:53:00
9:53 AM,36.0,28.9,76,29.85,10.0,NNW,12.7,-,N/A,,Clear,340,2013-02-14 14:53:00
10:53 AM,37.9,28.9,70,29.87,10.0,North,15.0,-,N/A,,Clear,350,2013-02-14 15:53:00
11:53 AM,39.9,28.9,65,29.89,10.0,NNW,11.5,18.4,N/A,,Clear,340,2013-02-14 16:53:00
12:53 PM,41.0,27.0,57,29.90,10.0,North,10.4,-,N/A,,Partly Cloudy,350,2013-02-14 17:53:00
1:53 PM,42.1,24.1,49,29.91,10.0,North,8.1,-,N/A,,Scattered Clouds,350,2013-02-14 18:53:00
2:53 PM,43.0,23.0,45,29.92,10.0,WNW,4.6,-,N/A,,Clear,290,2013-02-14 19:53:00
3:53 PM,39.0,27.0,62,29.95,10.0,South,10.4,-,N/A,,Clear,180,2013-02-14 20:53:00
4:53 PM,37.0,27.0,67,29.96,10.0,SSE,5.8,-,N/A,,Clear,160,2013-02-14 21:53:00
5:53 PM,32.0,26.1,79,30.00,10.0,South,4.6,-,N/A,,Clear,180,2013-02-14 22:53:00
6:53 PM,28.9,25.0,85,30.01,10.0,Calm,Calm,-,N/A,,Clear,0,2013-02-14 23:53:00
7:53 PM,27.0,25.0,92,30.02,10.0,Calm,Calm,-,N/A,,Clear,0,2013-02-15 00:53:00
8:53 PM,25.0,23.0,92,30.02,10.0,Calm,Calm,-,N/A,,Clear,0,2013-02-15 01:53:00
9:53 PM,25.0,23.0,92,30.02,10.0,Calm,Calm,-,N/A,,Clear,0,2013-02-15 02:53:00
10:53 PM,24.1,21.9,91,30.03,10.0,Calm,Calm,-,N/A,,Clear,0,2013-02-15 03:53:00
11:53 PM,21.9,21.9,100,30.03,10.0,Calm,Calm,-,N/A,,Clear,0,2013-02-15 04:53:00